^^
Station Historical Data
 
Daily Summary for February 19, 2018 Units:  English    Metric   Both
« Previous Day
Next Day »
Daily Weekly Monthly Yearly Custom
  Current: High: Low: Average:
Temperature: 2.4 °F 7.2 °F -0.6 °F 3.4 °F
Dew Point: -1.6 °F 1.4 °F -6.8 °F -2.9 °F
Humidity: 83% 92% 66% 75%
Wind Speed: 4.0mph 8.0mph 0.0mph 3.7mph
Wind Gust: 5.0mph 12.0mph - -
WindNorth - - ENE
Pressure: 30.18 in 30.25 in 30.10 in -
Precipitation: 0.10 in      
Historical Graphs
 
 
Tabular Data for February 19, 2018
Time Temperature Dew Point Pressure Wind Wind Speed Wind Gust Humidity Rainfall Rate (Hourly) solar Conditions
00:01 6.3 °F 0.3 °F 30.14 in NNE 5.0 mph 6.0 mph 76% 0.00 in 0 W/m2
00:06 6.3 °F 0.3 °F 30.16 in North 3.0 mph 5.0 mph 76% 0.00 in 0 W/m2
00:11 6.3 °F 0.3 °F 30.16 in Calm   5.0 mph 76% 0.00 in 0 W/m2
00:16 6.3 °F 0.3 °F 30.15 in North 5.0 mph 5.0 mph 76% 0.00 in 0 W/m2
00:21 6.1 °F 0.2 °F 30.14 in NNE 5.0 mph 6.0 mph 76% 0.00 in 0 W/m2
00:26 6.0 °F 0.1 °F 30.15 in NNE 3.0 mph 7.0 mph 76% 0.00 in 0 W/m2
00:31 6.0 °F -0.2 °F 30.15 in North 4.0 mph 7.0 mph 75% 0.00 in 0 W/m2
00:36 5.9 °F -0.6 °F 30.15 in North 4.0 mph 6.0 mph 74% 0.00 in 0 W/m2
00:41 5.9 °F -0.6 °F 30.14 in NNE 4.0 mph 5.0 mph 74% 0.00 in 0 W/m2
00:46 5.8 °F -0.7 °F 30.15 in North 5.0 mph 6.0 mph 74% 0.00 in 0 W/m2
00:51 5.7 °F -1.4 °F 30.14 in NNE 3.0 mph 7.0 mph 72% 0.00 in 0 W/m2
00:56 5.6 °F -1.8 °F 30.15 in North 5.0 mph 8.0 mph 71% 0.00 in 0 W/m2
01:01 5.6 °F -1.8 °F 30.15 in North 5.0 mph 8.0 mph 71% 0.00 in 0 W/m2
01:06 5.5 °F -2.2 °F 30.15 in NNE 6.0 mph 7.0 mph 70% 0.00 in 0 W/m2
01:11 5.5 °F -2.2 °F 30.15 in NNE 6.0 mph 7.0 mph 70% 0.00 in 0 W/m2
01:16 5.4 °F -2.3 °F 30.15 in NNE 5.0 mph 7.0 mph 70% 0.00 in 0 W/m2
01:21 5.4 °F -2.3 °F 30.14 in North 5.0 mph 8.0 mph 70% 0.00 in 0 W/m2
01:26 5.3 °F -2.7 °F 30.13 in NNE 5.0 mph 9.0 mph 69% 0.00 in 0 W/m2
01:31 5.2 °F -2.5 °F 30.14 in North 4.0 mph 9.0 mph 70% 0.00 in 0 W/m2
01:36 5.1 °F -2.3 °F 30.14 in North 5.0 mph 8.0 mph 71% 0.00 in 0 W/m2
01:41 5.1 °F -2.3 °F 30.14 in North 5.0 mph 8.0 mph 71% 0.00 in 0 W/m2
01:46 5.0 °F -2.1 °F 30.13 in NNE 6.0 mph 6.0 mph 72% 0.00 in 0 W/m2
01:51 4.8 °F -2.3 °F 30.13 in NNE 8.0 mph 9.0 mph 72% 0.00 in 0 W/m2
01:56 4.7 °F -2.6 °F 30.11 in North 6.0 mph 11.0 mph 71% 0.00 in 0 W/m2
02:01 4.6 °F -2.7 °F 30.11 in NNE 8.0 mph 11.0 mph 71% 0.00 in 0 W/m2
02:06 4.4 °F -3.2 °F 30.10 in North 7.0 mph 12.0 mph 70% 0.00 in 0 W/m2
02:11 4.3 °F -3.6 °F 30.10 in NNE 6.0 mph 12.0 mph 69% 0.00 in 0 W/m2
02:16 4.2 °F -3.7 °F 30.11 in North 5.0 mph 12.0 mph 69% 0.00 in 0 W/m2
02:21 4.0 °F -3.9 °F 30.11 in North 5.0 mph 8.0 mph 69% 0.00 in 0 W/m2
02:26 3.9 °F -4.0 °F 30.12 in North 5.0 mph 8.0 mph 69% 0.00 in 0 W/m2
02:31 3.7 °F -4.2 °F 30.12 in NNE 4.0 mph 7.0 mph 69% 0.00 in 0 W/m2
02:36 3.7 °F -4.5 °F 30.10 in NNE 5.0 mph 9.0 mph 68% 0.00 in 0 W/m2
02:41 3.5 °F -4.7 °F 30.10 in NNE 5.0 mph 9.0 mph 68% 0.00 in 0 W/m2
02:46 3.3 °F -4.6 °F 30.14 in NNE 4.0 mph 9.0 mph 69% 0.00 in 0 W/m2
02:51 3.2 °F -4.7 °F 30.13 in NNE 4.0 mph 6.0 mph 69% 0.00 in 0 W/m2
02:56 2.9 °F -5.0 °F 30.13 in North 5.0 mph 7.0 mph 69% 0.00 in 0 W/m2
03:01 2.8 °F -5.1 °F 30.14 in Calm   7.0 mph 69% 0.00 in 0 W/m2
03:06 2.6 °F -5.0 °F 30.15 in North 4.0 mph 5.0 mph 70% 0.00 in 0 W/m2
03:11 2.4 °F -4.9 °F 30.16 in NW 5.0 mph 5.0 mph 71% 0.00 in 0 W/m2
03:16 2.5 °F -4.8 °F 30.17 in NNW 3.0 mph 6.0 mph 71% 0.00 in 0 W/m2
03:21 2.5 °F -4.8 °F 30.17 in NNW 5.0 mph 7.0 mph 71% 0.00 in 0 W/m2
03:26 2.5 °F -4.8 °F 30.17 in NNW 6.0 mph 8.0 mph 71% 0.00 in 0 W/m2
03:32 2.3 °F -4.7 °F 30.17 in North 5.0 mph 8.0 mph 72% 0.00 in 0 W/m2
03:37 2.2 °F -5.1 °F 30.16 in North 4.0 mph 7.0 mph 71% 0.00 in 0 W/m2
03:41 2.1 °F -4.9 °F 30.17 in North 3.0 mph 7.0 mph 72% 0.00 in 0 W/m2
03:46 2.0 °F -5.0 °F 30.17 in NNW 4.0 mph 6.0 mph 72% 0.00 in 0 W/m2
03:51 1.9 °F -5.1 °F 30.15 in North 6.0 mph 7.0 mph 72% 0.00 in 0 W/m2
03:56 1.8 °F -5.2 °F 30.15 in North 6.0 mph 7.0 mph 72% 0.00 in 0 W/m2
04:02 1.7 °F -5.2 °F 30.15 in North 5.0 mph 6.0 mph 72% 0.00 in 0 W/m2
04:07 1.5 °F -5.4 °F 30.15 in NNE 4.0 mph 6.0 mph 72% 0.00 in 0 W/m2
04:12 1.4 °F -5.5 °F 30.15 in NNE 4.0 mph 6.0 mph 72% 0.00 in 0 W/m2
04:17 1.2 °F -5.7 °F 30.15 in NNE 5.0 mph 6.0 mph 72% 0.00 in 0 W/m2
04:22 1.1 °F -5.8 °F 30.16 in North 3.0 mph 6.0 mph 72% 0.00 in 0 W/m2
04:27 0.9 °F -6.0 °F 30.16 in NNE 2.0 mph 6.0 mph 72% 0.00 in 0 W/m2
04:32 0.8 °F -5.8 °F 30.17 in North 4.0 mph 5.0 mph 73% 0.00 in 0 W/m2
04:37 0.6 °F -6.0 °F 30.16 in NNE 5.0 mph 5.0 mph 73% 0.00 in 0 W/m2
04:42 0.6 °F -6.0 °F 30.18 in NNE 6.0 mph 6.0 mph 73% 0.00 in 0 W/m2
04:47 0.5 °F -6.1 °F 30.18 in North 4.0 mph 6.0 mph 73% 0.00 in 0 W/m2
04:52 0.4 °F -6.2 °F 30.19 in NNE 4.0 mph 6.0 mph 73% 0.00 in 0 W/m2
04:57 0.3 °F -6.3 °F 30.19 in Calm   6.0 mph 73% 0.00 in 0 W/m2
05:02 0.2 °F -6.4 °F 30.19 in North 5.0 mph 6.0 mph 73% 0.00 in 0 W/m2
05:07 0.1 °F -6.5 °F 30.19 in NNE 3.0 mph 5.0 mph 73% 0.00 in 0 W/m2
05:12 0.0 °F -6.6 °F 30.20 in North 4.0 mph 6.0 mph 73% 0.00 in 0 W/m2
05:17 -0.1 °F -6.7 °F 30.20 in NNE 4.0 mph 6.0 mph 73% 0.00 in 0 W/m2
05:22 -0.2 °F -6.8 °F 30.19 in NNE 5.0 mph 6.0 mph 73% 0.00 in 0 W/m2
05:27 -0.2 °F -6.8 °F 30.19 in North 5.0 mph 6.0 mph 73% 0.00 in 0 W/m2
05:32 -0.2 °F -6.5 °F 30.19 in NE 2.0 mph 6.0 mph 74% 0.00 in 0 W/m2
05:37 -0.1 °F -6.4 °F 30.19 in NE 5.0 mph 6.0 mph 74% 0.00 in 0 W/m2
05:42 -0.2 °F -6.5 °F 30.19 in NNE 4.0 mph 5.0 mph 74% 0.00 in 0 W/m2
05:47 -0.2 °F -6.5 °F 30.19 in NNE 4.0 mph 5.0 mph 74% 0.00 in 0 W/m2
05:52 -0.2 °F -6.5 °F 30.17 in NNE 4.0 mph 5.0 mph 74% 0.00 in 0 W/m2
05:57 -0.2 °F -6.5 °F 30.17 in NE 1.0 mph 5.0 mph 74% 0.00 in 0 W/m2
06:02 -0.2 °F -6.2 °F 30.18 in NNE 4.0 mph 5.0 mph 75% 0.00 in 0 W/m2
06:07 -0.2 °F -6.2 °F 30.17 in NE 4.0 mph 5.0 mph 75% 0.00 in 0 W/m2
06:12 -0.2 °F -6.2 °F 30.17 in NE 4.0 mph 5.0 mph 75% 0.00 in 0 W/m2
06:17 -0.2 °F -6.0 °F 30.17 in Calm   5.0 mph 76% 0.00 in 0 W/m2
06:22 -0.1 °F -5.9 °F 30.17 in ENE 4.0 mph 5.0 mph 76% 0.00 in 0 W/m2
06:27 0.0 °F -5.8 °F 30.18 in NE 3.0 mph 5.0 mph 76% 0.00 in 0 W/m2
06:32 0.0 °F -5.8 °F 30.18 in NE 4.0 mph 6.0 mph 76% 0.00 in 0 W/m2
06:37 0.0 °F -5.8 °F 30.18 in NE 5.0 mph 6.0 mph 76% 0.00 in 0 W/m2
06:42 0.0 °F -5.8 °F 30.18 in NE 5.0 mph 5.0 mph 76% 0.00 in 0 W/m2
06:47 -0.1 °F -5.6 °F 30.19 in NE 4.0 mph 5.0 mph 77% 0.00 in 0 W/m2
06:52 -0.1 °F -5.6 °F 30.19 in NE 3.0 mph 5.0 mph 77% 0.00 in 0 W/m2
06:57 -0.2 °F -5.7 °F 30.19 in NE 3.0 mph 5.0 mph 77% 0.00 in 0 W/m2
07:02 -0.2 °F -5.7 °F 30.19 in NE 4.0 mph 5.0 mph 77% 0.00 in 0 W/m2
07:07 -0.2 °F -5.7 °F 30.19 in NE 3.0 mph 5.0 mph 77% 0.00 in 0 W/m2
07:12 -0.2 °F -5.7 °F 30.19 in NE 5.0 mph 5.0 mph 77% 0.00 in 0 W/m2
07:17 -0.3 °F -5.8 °F 30.19 in NE 4.0 mph 6.0 mph 77% 0.00 in 0 W/m2
07:22 -0.4 °F -5.9 °F 30.19 in NE 4.0 mph 6.0 mph 77% 0.00 in 0 W/m2
07:27 -0.4 °F -5.9 °F 30.19 in NE 4.0 mph 5.0 mph 77% 0.00 in 0 W/m2
07:32 -0.5 °F -5.7 °F 30.19 in NE 2.0 mph 5.0 mph 78% 0.00 in 0 W/m2
07:37 -0.6 °F -5.8 °F 30.20 in ENE 1.0 mph 5.0 mph 78% 0.00 in 0 W/m2
07:42 -0.6 °F -5.8 °F 30.21 in Calm   5.0 mph 78% 0.00 in 5 W/m2
07:47 -0.6 °F -5.8 °F 30.21 in NE 2.0 mph 5.0 mph 78% 0.00 in 11 W/m2
07:52 -0.5 °F -5.7 °F 30.21 in NE 5.0 mph 5.0 mph 78% 0.00 in 14 W/m2
07:57 -0.4 °F -5.6 °F 30.22 in Calm   5.0 mph 78% 0.00 in 21 W/m2
08:02 -0.4 °F -5.6 °F 30.22 in NNE 4.0 mph 5.0 mph 78% 0.00 in 30 W/m2
08:07 -0.3 °F -5.3 °F 30.22 in NNE 2.0 mph 5.0 mph 79% 0.00 in 32 W/m2
08:12 -0.2 °F -5.2 °F 30.22 in NNE 4.0 mph 5.0 mph 79% 0.00 in 35 W/m2
08:17 0.0 °F -5.0 °F 30.22 in NE 4.0 mph 6.0 mph 79% 0.00 in 40 W/m2
08:22 0.2 °F -4.8 °F 30.22 in NE 4.0 mph 6.0 mph 79% 0.00 in 53 W/m2
08:27 0.3 °F -4.7 °F 30.22 in NE 1.0 mph 5.0 mph 79% 0.00 in 47 W/m2
08:32 0.5 °F -4.5 °F 30.22 in NE 5.0 mph 5.0 mph 79% 0.00 in 56 W/m2
08:37 0.6 °F -4.4 °F 30.22 in NNE 4.0 mph 6.0 mph 79% 0.00 in 72 W/m2
08:42 0.8 °F -4.2 °F 30.22 in NNE 3.0 mph 6.0 mph 79% 0.00 in 91 W/m2
08:47 1.0 °F -4.0 °F 30.22 in Calm   5.0 mph 79% 0.00 in 114 W/m2
08:52 1.3 °F -3.7 °F 30.22 in NNE 2.0 mph 5.0 mph 79% 0.00 in 111 W/m2
08:57 1.6 °F -3.4 °F 30.23 in NE 4.0 mph 5.0 mph 79% 0.00 in 130 W/m2
09:02 1.8 °F -3.5 °F 30.23 in NE 4.0 mph 5.0 mph 78% 0.00 in 139 W/m2
09:07 2.0 °F -3.6 °F 30.23 in NE 4.0 mph 5.0 mph 77% 0.00 in 146 W/m2
09:12 2.2 °F -3.4 °F 30.23 in NE 4.0 mph 5.0 mph 77% 0.00 in 158 W/m2
09:17 2.5 °F -3.1 °F 30.23 in NE 4.0 mph 6.0 mph 77% 0.00 in 176 W/m2
09:22 2.7 °F -3.1 °F 30.22 in NE 5.0 mph 6.0 mph 76% 0.00 in 199 W/m2
09:27 2.9 °F -3.2 °F 30.21 in NE 5.0 mph 7.0 mph 75% 0.00 in 204 W/m2
09:32 3.1 °F -3.0 °F 30.20 in NE 5.0 mph 7.0 mph 75% 0.00 in 204 W/m2
09:37 3.4 °F -3.0 °F 30.22 in NE 4.0 mph 6.0 mph 74% 0.00 in 197 W/m2
09:42 3.5 °F -3.2 °F 30.24 in NE 4.0 mph 5.0 mph 73% 0.00 in 195 W/m2
09:47 3.4 °F -3.6 °F 30.24 in Calm   5.0 mph 72% 0.00 in 213 W/m2
09:52 3.3 °F -4.0 °F 30.24 in ENE 5.0 mph 7.0 mph 71% 0.00 in 202 W/m2
09:57 3.0 °F -4.6 °F 30.24 in ENE 2.0 mph 7.0 mph 70% 0.00 in 169 W/m2
10:02 3.0 °F -4.6 °F 30.24 in ENE 4.0 mph 7.0 mph 70% 0.00 in 197 W/m2
10:07 2.9 °F -4.7 °F 30.24 in ENE 5.0 mph 7.0 mph 70% 0.00 in 223 W/m2
10:12 3.2 °F -4.1 °F 30.24 in ENE 5.0 mph 7.0 mph 71% 0.00 in 209 W/m2
10:17 3.6 °F -3.7 °F 30.23 in ENE 3.0 mph 3.0 mph 71% 0.00 in 202 W/m2
10:22 3.7 °F -3.9 °F 30.22 in NE 3.0 mph 5.0 mph 70% 0.00 in 211 W/m2
10:27 3.9 °F -3.7 °F 30.22 in NE 4.0 mph 5.0 mph 70% 0.00 in 223 W/m2
10:32 3.8 °F -4.1 °F 30.22 in ENE 4.0 mph 5.0 mph 69% 0.00 in 246 W/m2
10:37 3.6 °F -4.3 °F 30.23 in ENE 4.0 mph 7.0 mph 69% 0.00 in 246 W/m2
10:42 3.4 °F -4.2 °F 30.23 in NE 5.0 mph 7.0 mph 70% 0.00 in 214 W/m2
10:47 3.4 °F -3.9 °F 30.23 in NE 5.0 mph 5.0 mph 71% 0.10 in 209 W/m2
10:52 3.4 °F -3.9 °F 30.23 in ENE 4.0 mph 6.0 mph 71% 0.10 in 237 W/m2
10:57 3.5 °F -3.5 °F 30.23 in ENE 4.0 mph 6.0 mph 72% 0.10 in 239 W/m2
11:02 3.8 °F -2.9 °F 30.24 in ENE 5.0 mph 5.0 mph 73% 0.10 in 274 W/m2
11:07 4.1 °F -2.6 °F 30.24 in ENE 4.0 mph 5.0 mph 73% 0.10 in 294 W/m2
11:12 4.5 °F -2.3 °F 30.24 in ENE 5.0 mph 6.0 mph 73% 0.10 in 271 W/m2
11:17 4.8 °F -2.3 °F 30.24 in NE 3.0 mph 6.0 mph 72% 0.10 in 309 W/m2
11:22 5.3 °F -1.8 °F 30.24 in NE 3.0 mph 6.0 mph 72% 0.10 in 355 W/m2
11:27 5.7 °F -1.4 °F 30.25 in ENE 4.0 mph 5.0 mph 72% 0.10 in 373 W/m2
11:32 5.9 °F -1.5 °F 30.25 in NE 4.0 mph 5.0 mph 71% 0.10 in 434 W/m2
11:37 6.3 °F -1.1 °F 30.24 in ENE 5.0 mph 5.0 mph 71% 0.10 in 424 W/m2
11:42 5.9 °F -1.8 °F 30.24 in ENE 4.0 mph 5.0 mph 70% 0.00 in 415 W/m2
11:47 6.3 °F -1.1 °F 30.23 in NE 4.0 mph 6.0 mph 71% 0.00 in 427 W/m2
11:52 6.8 °F -0.9 °F 30.23 in ENE 3.0 mph 6.0 mph 70% 0.00 in 399 W/m2
11:57 6.8 °F -1.2 °F 30.23 in NE 4.0 mph 5.0 mph 69% 0.00 in 418 W/m2
12:02 6.7 °F -1.3 °F 30.24 in NE 3.0 mph 5.0 mph 69% 0.00 in 415 W/m2
12:07 6.7 °F -1.3 °F 30.24 in ENE 2.0 mph 5.0 mph 69% 0.00 in 441 W/m2
12:12 7.0 °F -1.0 °F 30.24 in ENE 4.0 mph 5.0 mph 69% 0.00 in 429 W/m2
12:17 6.9 °F -1.4 °F 30.24 in ENE 5.0 mph 7.0 mph 68% 0.00 in 429 W/m2
12:22 6.6 °F -2.0 °F 30.24 in ENE 2.0 mph 7.0 mph 67% 0.00 in 418 W/m2
12:27 6.8 °F -1.2 °F 30.24 in Calm   6.0 mph 69% 0.00 in 385 W/m2
12:32 6.6 °F -1.7 °F 30.24 in NE 2.0 mph 6.0 mph 68% 0.00 in 345 W/m2
12:37 6.7 °F -1.3 °F 30.23 in ENE 3.0 mph 6.0 mph 69% 0.00 in 343 W/m2
12:42 7.0 °F -1.0 °F 30.23 in ENE 3.0 mph 6.0 mph 69% 0.00 in 336 W/m2
12:47 6.9 °F -1.4 °F 30.23 in NE 2.0 mph 5.0 mph 68% 0.00 in 309 W/m2
12:52 6.9 °F -1.4 °F 30.22 in NE 2.0 mph 5.0 mph 68% 0.00 in 313 W/m2
12:57 6.9 °F -1.4 °F 30.23 in Calm   5.0 mph 68% 0.00 in 274 W/m2
13:02 7.1 °F -1.2 °F 30.23 in ENE 4.0 mph 5.0 mph 68% 0.00 in 272 W/m2
13:07 6.7 °F -1.9 °F 30.23 in NE 3.0 mph 6.0 mph 67% 0.00 in 309 W/m2
13:12 7.1 °F -0.9 °F 30.22 in NE 1.0 mph 6.0 mph 69% 0.00 in 272 W/m2
13:17 7.2 °F -1.2 °F 30.22 in NE 3.0 mph 5.0 mph 68% 0.00 in 246 W/m2
13:22 7.1 °F -1.2 °F 30.22 in NE 3.0 mph 5.0 mph 68% 0.00 in 246 W/m2
13:27 7.1 °F -1.2 °F 30.22 in Calm   4.0 mph 68% 0.00 in 262 W/m2
13:32 7.0 °F -1.3 °F 30.22 in Calm   5.0 mph 68% 0.00 in 255 W/m2
13:37 7.0 °F -1.7 °F 30.22 in NE 5.0 mph 5.0 mph 67% 0.00 in 236 W/m2
13:42 6.9 °F -1.8 °F 30.22 in NE 4.0 mph 5.0 mph 67% 0.00 in 237 W/m2
13:47 6.8 °F -1.8 °F 30.21 in NE 2.0 mph 5.0 mph 67% 0.00 in 216 W/m2
13:52 6.9 °F -2.1 °F 30.21 in Calm   5.0 mph 66% 0.00 in 229 W/m2
13:57 6.9 °F -2.1 °F 30.21 in NNE 4.0 mph 5.0 mph 66% 0.00 in 225 W/m2
14:02 6.9 °F -1.8 °F 30.20 in NNE 5.0 mph 6.0 mph 67% 0.00 in 257 W/m2
14:07 6.8 °F -1.8 °F 30.20 in NE 4.0 mph 6.0 mph 67% 0.00 in 264 W/m2
14:12 6.8 °F -1.8 °F 30.19 in ENE 5.0 mph 7.0 mph 67% 0.00 in 265 W/m2
14:17 6.8 °F -2.2 °F 30.19 in ENE 4.0 mph 7.0 mph 66% 0.00 in 264 W/m2
14:22 6.7 °F -2.3 °F 30.19 in NNE 4.0 mph 5.0 mph 66% 0.00 in 213 W/m2
14:27 6.6 °F -2.0 °F 30.19 in NE 4.0 mph 6.0 mph 67% 0.00 in 258 W/m2
14:32 6.6 °F -2.0 °F 30.19 in NE 4.0 mph 6.0 mph 67% 0.00 in 264 W/m2
14:37 6.6 °F -2.0 °F 30.19 in NE 2.0 mph 8.0 mph 67% 0.00 in 269 W/m2
14:42 6.6 °F -2.4 °F 30.19 in ENE 4.0 mph 8.0 mph 66% 0.00 in 250 W/m2
14:47 6.5 °F -2.5 °F 30.19 in NE 3.0 mph 6.0 mph 66% 0.00 in 221 W/m2
14:52 6.4 °F -2.2 °F 30.18 in NE 6.0 mph 6.0 mph 67% 0.00 in 221 W/m2
14:57 6.2 °F -2.4 °F 30.19 in NE 5.0 mph 6.0 mph 67% 0.00 in 206 W/m2
15:02 6.0 °F -2.3 °F 30.19 in NE 5.0 mph 6.0 mph 68% 0.00 in 183 W/m2
15:08 5.8 °F -2.5 °F 30.18 in NNE 4.0 mph 7.0 mph 68% 0.00 in 195 W/m2
15:13 6.0 °F -1.7 °F 30.18 in NE 2.0 mph 7.0 mph 70% 0.00 in 206 W/m2
15:18 5.9 °F -1.8 °F 30.18 in NE 2.0 mph 7.0 mph 70% 0.00 in 206 W/m2
15:23 5.9 °F -1.5 °F 30.18 in ENE 3.0 mph 5.0 mph 71% 0.00 in 204 W/m2
15:28 5.8 °F -1.9 °F 30.19 in ENE 5.0 mph 5.0 mph 70% 0.00 in 204 W/m2
15:33 5.6 °F -2.1 °F 30.19 in NE 3.0 mph 7.0 mph 70% 0.00 in 156 W/m2
15:38 5.7 °F -1.7 °F 30.19 in ENE 5.0 mph 7.0 mph 71% 0.00 in 148 W/m2
15:43 5.5 °F -1.9 °F 30.19 in NE 5.0 mph 5.0 mph 71% 0.00 in 148 W/m2
15:48 5.4 °F -2.0 °F 30.19 in ENE 7.0 mph 7.0 mph 71% 0.00 in 137 W/m2
15:53 5.2 °F -1.9 °F 30.20 in NE 5.0 mph 7.0 mph 72% 0.00 in 142 W/m2
15:58 5.2 °F -1.6 °F 30.19 in NE 5.0 mph 7.0 mph 73% 0.00 in 139 W/m2
16:03 5.3 °F -1.2 °F 30.19 in NNE 5.0 mph 5.0 mph 74% 0.00 in 121 W/m2
16:08 5.3 °F -1.2 °F 30.20 in NE 2.0 mph 5.0 mph 74% 0.00 in 109 W/m2
16:13 5.1 °F -1.4 °F 30.20 in NE 4.0 mph 6.0 mph 74% 0.00 in 120 W/m2
16:18 5.1 °F -1.1 °F 30.20 in NE 4.0 mph 6.0 mph 75% 0.00 in 102 W/m2
16:23 5.0 °F -1.2 °F 30.20 in NE 1.0 mph 6.0 mph 75% 0.00 in 90 W/m2
16:28 4.9 °F -1.3 °F 30.19 in NNE 4.0 mph 5.0 mph 75% 0.00 in 121 W/m2
16:33 4.9 °F -1.0 °F 30.19 in NE 6.0 mph 6.0 mph 76% 0.00 in 109 W/m2
16:38 4.8 °F -1.4 °F 30.20 in NE 4.0 mph 6.0 mph 75% 0.00 in 93 W/m2
16:43 4.7 °F -1.2 °F 30.20 in NNE 4.0 mph 6.0 mph 76% 0.00 in 67 W/m2
16:48 4.6 °F -1.3 °F 30.20 in NNE 4.0 mph 5.0 mph 76% 0.00 in 70 W/m2
16:53 4.5 °F -1.4 °F 30.21 in NNE 4.0 mph 5.0 mph 76% 0.00 in 60 W/m2
16:58 4.5 °F -1.4 °F 30.21 in NNE 4.0 mph 5.0 mph 76% 0.00 in 62 W/m2
17:03 4.4 °F -1.2 °F 30.21 in NNE 3.0 mph 5.0 mph 77% 0.00 in 54 W/m2
17:08 4.3 °F -1.3 °F 30.20 in NNE 5.0 mph 6.0 mph 77% 0.00 in 49 W/m2
17:13 4.3 °F -1.3 °F 30.20 in NNE 4.0 mph 6.0 mph 77% 0.00 in 42 W/m2
17:18 4.1 °F -1.2 °F 30.21 in NE 5.0 mph 6.0 mph 78% 0.00 in 37 W/m2
17:23 4.0 °F -1.3 °F 30.21 in NNE 5.0 mph 5.0 mph 78% 0.00 in 35 W/m2
17:28 3.9 °F -1.2 °F 30.21 in NE 5.0 mph 5.0 mph 79% 0.00 in 32 W/m2
17:33 3.8 °F -1.3 °F 30.21 in NE 4.0 mph 6.0 mph 79% 0.00 in 25 W/m2
17:38 3.8 °F -1.0 °F 30.20 in NE 4.0 mph 6.0 mph 80% 0.00 in 19 W/m2
17:43 3.7 °F -1.1 °F 30.21 in NE 3.0 mph 6.0 mph 80% 0.00 in 18 W/m2
17:48 3.6 °F -1.2 °F 30.20 in NE 2.0 mph 6.0 mph 80% 0.00 in 14 W/m2
17:53 3.6 °F -0.9 °F 30.20 in NE 4.0 mph 5.0 mph 81% 0.00 in 11 W/m2
17:58 3.5 °F -1.0 °F 30.20 in NNE 3.0 mph 5.0 mph 81% 0.00 in 9 W/m2
18:03 3.5 °F -1.0 °F 30.20 in NE 4.0 mph 5.0 mph 81% 0.00 in 5 W/m2
18:08 3.4 °F -1.1 °F 30.21 in Calm   5.0 mph 81% 0.00 in 0 W/m2
18:13 3.4 °F -1.1 °F 30.20 in NE 5.0 mph 5.0 mph 81% 0.00 in 0 W/m2
18:18 3.3 °F -1.2 °F 30.19 in NE 5.0 mph 6.0 mph 81% 0.00 in 0 W/m2
18:23 3.2 °F -1.3 °F 30.19 in NNE 2.0 mph 6.0 mph 81% 0.00 in 0 W/m2
18:28 3.2 °F -1.1 °F 30.20 in NE 4.0 mph 6.0 mph 82% 0.00 in 0 W/m2
18:33 3.2 °F -1.1 °F 30.20 in Calm   5.0 mph 82% 0.00 in 0 W/m2
18:38 3.2 °F -1.1 °F 30.20 in NE 4.0 mph 5.0 mph 82% 0.00 in 0 W/m2
18:43 3.2 °F -1.1 °F 30.20 in NNE 4.0 mph 5.0 mph 82% 0.00 in 0 W/m2
18:48 3.2 °F -1.1 °F 30.20 in NNE 4.0 mph 5.0 mph 82% 0.00 in 0 W/m2
18:53 3.2 °F -1.1 °F 30.20 in NE 4.0 mph 5.0 mph 82% 0.00 in 0 W/m2
18:58 3.2 °F -1.1 °F 30.19 in NE 4.0 mph 7.0 mph 82% 0.00 in 0 W/m2
19:03 3.2 °F 1.4 °F 30.19 in NNE 4.0 mph 7.0 mph 92% 0.00 in 0 W/m2
19:08 3.1 °F -1.2 °F 30.19 in NNE 3.0 mph 6.0 mph 82% 0.00 in 0 W/m2
19:13 3.0 °F -1.3 °F 30.20 in NE 2.0 mph 5.0 mph 82% 0.00 in 0 W/m2
19:18 3.0 °F -1.3 °F 30.21 in NE 5.0 mph 5.0 mph 82% 0.00 in 0 W/m2
19:23 3.0 °F -1.3 °F 30.20 in NE 5.0 mph 6.0 mph 82% 0.00 in 0 W/m2
19:28 2.9 °F -1.3 °F 30.21 in NE 3.0 mph 6.0 mph 82% 0.00 in 0 W/m2
19:33 2.9 °F -1.3 °F 30.21 in NE 3.0 mph 6.0 mph 82% 0.00 in 0 W/m2
19:38 2.9 °F -1.3 °F 30.21 in NNE 2.0 mph 5.0 mph 82% 0.00 in 0 W/m2
19:43 2.9 °F -1.3 °F 30.21 in NNE 5.0 mph 6.0 mph 82% 0.00 in 0 W/m2
19:48 2.8 °F -1.4 °F 30.21 in NNE 4.0 mph 6.0 mph 82% 0.00 in 0 W/m2
19:53 2.7 °F -1.5 °F 30.21 in NNE 4.0 mph 6.0 mph 82% 0.00 in 0 W/m2
19:58 2.7 °F -1.5 °F 30.20 in NNE 4.0 mph 6.0 mph 82% 0.00 in 0 W/m2
20:03 2.7 °F -1.5 °F 30.21 in NNE 4.0 mph 5.0 mph 82% 0.00 in 0 W/m2
20:08 2.7 °F -1.5 °F 30.20 in Calm   5.0 mph 82% 0.00 in 0 W/m2
20:13 2.7 °F -1.5 °F 30.19 in NNE 4.0 mph 5.0 mph 82% 0.00 in 0 W/m2
20:18 2.7 °F -1.3 °F 30.19 in NNE 5.0 mph 5.0 mph 83% 0.00 in 0 W/m2
20:23 2.7 °F -1.3 °F 30.19 in NNE 4.0 mph 5.0 mph 83% 0.00 in 0 W/m2
20:28 2.6 °F -1.4 °F 30.20 in NNE 5.0 mph 5.0 mph 83% 0.00 in 0 W/m2
20:33 2.5 °F -1.5 °F 30.20 in NNE 2.0 mph 5.0 mph 83% 0.00 in 0 W/m2
20:38 2.5 °F -1.5 °F 30.20 in NNE 5.0 mph 5.0 mph 83% 0.00 in 0 W/m2
20:43 2.4 °F -1.6 °F 30.19 in NNE 4.0 mph 5.0 mph 83% 0.00 in 0 W/m2
20:48 2.4 °F -1.6 °F 30.19 in NNE 4.0 mph 5.0 mph 83% 0.00 in 0 W/m2
20:53 2.5 °F -1.5 °F 30.19 in Calm   5.0 mph 83% 0.00 in 0 W/m2
20:58 2.4 °F -1.6 °F 30.18 in Calm   5.0 mph 83% 0.00 in 0 W/m2
21:03 2.4 °F -1.6 °F 30.19 in NNE 4.0 mph 5.0 mph 83% 0.00 in 0 W/m2
21:08 2.4 °F -1.6 °F 30.20 in Calm   5.0 mph 83% 0.00 in 0 W/m2
21:13 2.5 °F -1.5 °F 30.21 in Calm   5.0 mph 83% 0.00 in 0 W/m2
21:18 2.5 °F -1.5 °F 30.20 in Calm   4.0 mph 83% 0.00 in 0 W/m2
21:23 2.5 °F -1.5 °F 30.18 in NNE 5.0 mph 5.0 mph 83% 0.00 in 0 W/m2
21:28 2.4 °F -1.6 °F 30.17 in North 4.0 mph 5.0 mph 83% 0.00 in 0 W/m2
21:33 2.4 °F -1.6 °F 30.17 in NE 4.0 mph 5.0 mph 83% 0.00 in 0 W/m2
21:38 2.4 °F -1.6 °F 30.17 in North 5.0 mph 6.0 mph 83% 0.00 in 0 W/m2
21:43 2.4 °F -1.6 °F 30.17 in NNE 4.0 mph 6.0 mph 83% 0.00 in 0 W/m2
21:48 2.4 °F -1.6 °F 30.18 in Calm   5.0 mph 83% 0.00 in 0 W/m2
21:53 2.4 °F -1.6 °F 30.19 in North 4.0 mph 5.0 mph 83% 0.00 in 0 W/m2
21:58 2.4 °F -1.8 °F 30.20 in North 4.0 mph 5.0 mph 82% 0.00 in 0 W/m2
22:03 2.4 °F -1.8 °F 30.20 in Calm   5.0 mph 82% 0.00 in 0 W/m2
22:08 2.4 °F -1.8 °F 30.19 in NNE 2.0 mph 5.0 mph 82% 0.00 in 0 W/m2
22:13 2.4 °F -1.8 °F 30.18 in North 1.0 mph 5.0 mph 82% 0.00 in 0 W/m2
22:18 2.4 °F -1.8 °F 30.19 in NNW 5.0 mph 5.0 mph 82% 0.00 in 0 W/m2
22:23 2.3 °F -1.9 °F 30.19 in North 4.0 mph 6.0 mph 82% 0.00 in 0 W/m2
22:28 2.3 °F -1.9 °F 30.18 in NNE 5.0 mph 6.0 mph 82% 0.00 in 0 W/m2
22:33 2.3 °F -1.9 °F 30.18 in North 5.0 mph 6.0 mph 82% 0.00 in 0 W/m2
22:38 2.3 °F -1.9 °F 30.18 in NNE 3.0 mph 5.0 mph 82% 0.00 in 0 W/m2
22:43 2.3 °F -1.9 °F 30.18 in North 4.0 mph 5.0 mph 82% 0.00 in 0 W/m2
22:48 2.3 °F -1.7 °F 30.16 in NNE 3.0 mph 5.0 mph 83% 0.00 in 0 W/m2
22:53 2.3 °F -1.7 °F 30.15 in NNE 5.0 mph 5.0 mph 83% 0.00 in 0 W/m2
22:58 2.3 °F -1.7 °F 30.18 in NNE 3.0 mph 5.0 mph 83% 0.00 in 0 W/m2
23:03 2.3 °F -1.7 °F 30.19 in NNE 4.0 mph 5.0 mph 83% 0.00 in 0 W/m2
23:08 2.4 °F -1.6 °F 30.18 in North 4.0 mph 5.0 mph 83% 0.00 in 0 W/m2
Bismarck, North Dakota, USA
Compliments of Weather Underground - 4 mb